• In Latvia
  • List of Countries
  • For 7 days
  • Water Temperature
  • Satellite Maps
  • Weather Map
  • Weather Widgets
  • user-avatar
    Login

    Hourly Weather Eisenstadt

    Today, 26 February, Sunday

    Time Temperature Precipitation Wind Pressure Humidity
    00:00 -1°C° 0 mm 3 mps 726 mmHg 75%
    01:00 -1°C° 0 mm 3 mps 726 mmHg 75%
    02:00 -1°C° 0 mm 3 mps 726 mmHg 75%
    03:00 -1°C° 0 mm 3 mps 725 mmHg 74%
    04:00 -1°C° 0 mm 3 mps 725 mmHg 73%
    05:00 -1°C° 0 mm 3 mps 724 mmHg 73%
    06:00 -2°C° 0 mm 4 mps 724 mmHg 73%
    07:00 -2°C° 0 mm 4 mps 724 mmHg 73%
    08:00 -1°C° 0 mm 4 mps 724 mmHg 66%
    09:00 +1°C° 0 mm 4 mps 724 mmHg 60%
    10:00 +4°C° 0 mm 4 mps 724 mmHg 54%
    11:00 +5°C° 0 mm 3 mps 723 mmHg 53%
    12:00 +7°C° 0 mm 3 mps 723 mmHg 51%
    13:00 +8°C° 0 mm 3 mps 723 mmHg 50%
    14:00 +8°C° 0 mm 2 mps 723 mmHg 55%
    15:00 +7°C° 0 mm 2 mps 722 mmHg 61%
    16:00 +7°C° 0 mm 2 mps 722 mmHg 66%
    17:00 +6°C° 0 mm 2 mps 722 mmHg 70%
    18:00 +4°C° 0 mm 2 mps 722 mmHg 74%
    19:00 +3°C° 0 mm 2 mps 722 mmHg 77%
    20:00 +3°C° 0 mm 2 mps 722 mmHg 77%
    21:00 +4°C° 0 mm 1 mps 722 mmHg 78%
    22:00 +4°C° 0 mm 1 mps 722 mmHg 78%
    23:00 +4°C° 0 mm 1 mps 722 mmHg 77%

    Tomorrow, 27 February, Monday

    Time Temperature Precipitation Wind Pressure Humidity
    00:00 +4°C° 0 mm 1 mps 722 mmHg 77%
    01:00 +4°C° 0 mm 1 mps 721 mmHg 77%
    02:00 +3°C° 0 mm 1 mps 721 mmHg 77%
    03:00 +3°C° 0 mm 1 mps 721 mmHg 77%
    04:00 +2°C° 0 mm 2 mps 720 mmHg 77%
    05:00 +2°C° 0 mm 2 mps 720 mmHg 79%
    06:00 +2°C° 0 mm 2 mps 720 mmHg 80%
    07:00 +2°C° 0 mm 2 mps 720 mmHg 81%
    08:00 +3°C° 0 mm 2 mps 720 mmHg 77%
    09:00 +4°C° 0 mm 3 mps 720 mmHg 73%
    10:00 +7°C° 0 mm 3 mps 720 mmHg 69%
    11:00 +7°C° 0 mm 4 mps 719 mmHg 68%
    12:00 +9°C° 0 mm 5 mps 719 mmHg 67%
    13:00 +10°C° 0 mm 5 mps 718 mmHg 66%
    14:00 +10°C° 0 mm 5 mps 717 mmHg 68%
    15:00 +10°C° 0 mm 5 mps 717 mmHg 71%
    16:00 +9°C° 0 mm 5 mps 716 mmHg 74%
    17:00 +8°C° 0 mm 5 mps 716 mmHg 78%
    18:00 +7°C° 0 mm 5 mps 715 mmHg 82%
    19:00 +5°C° 0 mm 5 mps 715 mmHg 87%
    20:00 +5°C° 0 mm 5 mps 715 mmHg 87%
    21:00 +3°C° 0 mm 5 mps 714 mmHg 87%
    22:00 +3°C° 0 mm 4 mps 714 mmHg 86%
    23:00 +3°C° 0 mm 4 mps 714 mmHg 87%

    Day after tomorrow, 28 February, Tuesday

    Time Temperature Precipitation Wind Pressure Humidity
    00:00 +3°C° 0 mm 4 mps 713 mmHg 87%
    01:00 +1°C° 0 mm 4 mps 713 mmHg 87%
    02:00 +1°C° 0 mm 4 mps 713 mmHg 87%
    03:00 +1°C° 0 mm 4 mps 713 mmHg 87%
    04:00 0°C° 0 mm 4 mps 712 mmHg 87%
    05:00 +1°C° 0 mm 3 mps 713 mmHg 86%
    06:00 +1°C° 0 mm 3 mps 713 mmHg 86%
    07:00 +1°C° 0 mm 3 mps 713 mmHg 85%
    08:00 +3°C° 0 mm 3 mps 714 mmHg 78%
    09:00 +5°C° 0 mm 3 mps 714 mmHg 72%
    10:00 +8°C° 0 mm 3 mps 714 mmHg 65%
    11:00 +8°C° 0 mm 4 mps 714 mmHg 67%
    12:00 +9°C° 0 mm 5 mps 713 mmHg 68%
    13:00 +9°C° 0 mm 7 mps 713 mmHg 69%
    14:00 +9°C° 0 mm 7 mps 712 mmHg 70%
    15:00 +9°C° 0 mm 8 mps 711 mmHg 72%
    16:00 +8°C° 0 mm 9 mps 710 mmHg 73%
    17:00 +7°C° 0 mm 9 mps 709 mmHg 75%
    18:00 +7°C° 0 mm 9 mps 709 mmHg 76%
    19:00 +6°C° 0 mm 9 mps 709 mmHg 78%
    20:00 +6°C° 0.7 mm 8 mps 710 mmHg 78%
    21:00 +5°C° 0.7 mm 7 mps 711 mmHg 79%
    22:00 +4°C° 0.7 mm 6 mps 712 mmHg 80%
    23:00 +3°C° 0.7 mm 5 mps 712 mmHg 79%

    1 March, Wednesday

    Time Temperature Precipitation Wind Pressure Humidity
    00:00 +3°C° 0.7 mm 5 mps 713 mmHg 77%
    01:00 +3°C° 0.7 mm 4 mps 714 mmHg 76%
    02:00 +3°C° 0.1 mm 3 mps 714 mmHg 77%
    03:00 +2°C° 0.1 mm 3 mps 714 mmHg 78%
    04:00 +2°C° 0.1 mm 3 mps 715 mmHg 79%
    05:00 +2°C° 0 mm 3 mps 715 mmHg 80%
    06:00 +2°C° 0 mm 3 mps 716 mmHg 80%
    07:00 +1°C° 0 mm 3 mps 716 mmHg 81%
    08:00 +1°C° 0 mm 4 mps 717 mmHg 76%
    09:00 +3°C° 0 mm 4 mps 717 mmHg 72%
    10:00 +3°C° 0 mm 5 mps 718 mmHg 67%
    11:00 +4°C° 0 mm 6 mps 718 mmHg 63%
    12:00 +5°C° 0 mm 6 mps 718 mmHg 58%
    13:00 +6°C° 0 mm 7 mps 718 mmHg 54%
    14:00 +7°C° 0 mm 6 mps 718 mmHg 56%
    15:00 +7°C° 0 mm 5 mps 718 mmHg 58%
    16:00 +7°C° 0 mm 4 mps 719 mmHg 60%
    17:00 +5°C° 0 mm 3 mps 719 mmHg 67%
    18:00 +3°C° 0 mm 3 mps 719 mmHg 73%
    19:00 +3°C° 0 mm 2 mps 719 mmHg 80%
    20:00 +3°C° 0 mm 2 mps 719 mmHg 81%
    21:00 +3°C° 0 mm 2 mps 719 mmHg 81%
    22:00 +3°C° 0 mm 3 mps 719 mmHg 82%
    23:00 +3°C° 0.1 mm 3 mps 718 mmHg 82%

    2 March, Thursday

    Time Temperature Precipitation Wind Pressure Humidity
    00:00 +3°C° 0.1 mm 4 mps 718 mmHg 81%
    01:00 +3°C° 0.1 mm 4 mps 717 mmHg 81%
    02:00 +3°C° 0.1 mm 4 mps 717 mmHg 81%
    03:00 +1°C° 0.1 mm 4 mps 717 mmHg 82%
    04:00 +2°C° 0.1 mm 3 mps 717 mmHg 82%
    05:00 +2°C° 0 mm 3 mps 718 mmHg 82%
    06:00 +2°C° 0 mm 3 mps 719 mmHg 81%
    07:00 +2°C° 0 mm 3 mps 720 mmHg 81%
    08:00 +3°C° 0 mm 4 mps 721 mmHg 73%
    09:00 +4°C° 0 mm 6 mps 721 mmHg 65%
    10:00 +5°C° 0 mm 7 mps 722 mmHg 57%
    11:00 +6°C° 0 mm 7 mps 723 mmHg 54%
    12:00 +8°C° 0 mm 7 mps 723 mmHg 50%
    13:00 +8°C° 0 mm 7 mps 723 mmHg 47%
    14:00 +8°C° 0 mm 6 mps 723 mmHg 51%
    15:00 +8°C° 0 mm 5 mps 724 mmHg 55%
    16:00 +8°C° 0 mm 4 mps 724 mmHg 58%
    17:00 +7°C° 0 mm 3 mps 724 mmHg 67%
    18:00 +4°C° 0 mm 3 mps 724 mmHg 75%
    19:00 +3°C° 0 mm 2 mps 725 mmHg 83%
    20:00 +3°C° 0 mm 2 mps 725 mmHg 85%
    21:00 +4°C° 0 mm 1 mps 725 mmHg 87%
    22:00 +3°C° 0 mm 1 mps 725 mmHg 89%
    23:00 +3°C° 0 mm 1 mps 725 mmHg 90%

    3 March, Friday

    Time Temperature Precipitation Wind Pressure Humidity
    00:00 +2°C° 0 mm 2 mps 724 mmHg 90%
    01:00 +2°C° 0 mm 2 mps 724 mmHg 91%
    02:00 +2°C° 0 mm 2 mps 723 mmHg 90%
    03:00 +2°C° 0 mm 2 mps 723 mmHg 89%
    04:00 +1°C° 0 mm 3 mps 722 mmHg 88%
    05:00 +1°C° 0 mm 3 mps 722 mmHg 88%
    06:00 +1°C° 0 mm 3 mps 722 mmHg 88%
    07:00 +1°C° 0 mm 3 mps 721 mmHg 87%
    08:00 +3°C° 0 mm 4 mps 721 mmHg 79%
    09:00 +5°C° 0 mm 4 mps 721 mmHg 71%
    10:00 +7°C° 0 mm 5 mps 721 mmHg 63%
    11:00 +8°C° 0 mm 5 mps 721 mmHg 60%
    12:00 +10°C° 0 mm 5 mps 720 mmHg 58%
    13:00 +12°C° 0 mm 5 mps 720 mmHg 56%
    14:00 +12°C° 0 mm 5 mps 719 mmHg 59%
    15:00 +11°C° 0 mm 4 mps 719 mmHg 62%
    16:00 +11°C° 0 mm 4 mps 718 mmHg 65%
    17:00 +10°C° 0 mm 4 mps 718 mmHg 72%
    18:00 +7°C° 0 mm 4 mps 718 mmHg 79%
    19:00 +5°C° 0 mm 4 mps 718 mmHg 86%
    20:00 +5°C° 0 mm 4 mps 718 mmHg 86%
    21:00 +5°C° 0 mm 5 mps 718 mmHg 86%
    22:00 +3°C° 0 mm 5 mps 717 mmHg 87%
    23:00 +3°C° 0 mm 5 mps 717 mmHg 87%
    Show more